Theta_e
311 311 311 311 312 310 308 307 304 303 303 303 304 304 305 305 305 299 294 295 294 289 293 297 299 292 291 289 285 289 289 290 288 284 284 284 281 285 283 286 285 281 277 282 282 280 276 295 295 288 290 293 293 290
310 310 310 310 311 309 307 307 305 303 303 303 303 304 304 305 305 302 290 296 297 289 291 297 297 298 296 295 291 291 288 289 291 287 288 290 286 287 284 282 287 280 285 284 287 283 293 298 297 298 296 289 289 288
311 311 310 310 309 307 307 306 304 303 303 303 303 304 304 304 304 302 295 293 291 288 289 290 291 298 300 300 300 290 292 295 294 296 294 292 285 284 277 280 284 288 290 288 288 291 295 297 298 296 295 291 293 291
310 310 310 309 308 307 306 305 304 303 303 303 303 303 304 304 304 303 294 293 291 288 283 288 299 297 302 301 299 300 299 297 298 299 293 291 287 290 285 286 286 290 289 288 291 293 295 297 296 292 291 291 292 293
309 310 309 308 307 306 305 305 304 303 303 303 303 304 304 304 303 301 297 294 295 289 284 288 297 300 299 296 297 296 297 295 293 293 292 289 293 292 293 289 285 289 288 289 288 295 292 291 291 292 290 291 292 291
309 309 308 307 306 306 305 305 304 303 303 303 303 303 303 303 303 292 287 295 299 298 292 285 292 291 295 295 296 296 296 296 297 293 294 295 297 293 287 285 290 292 297 298 295 298 295 291 292 292 292 292 293 291
308 308 307 307 306 305 305 304 303 303 303 303 303 303 303 303 295 288 287 296 300 294 287 282 283 291 296 296 296 296 297 300 298 294 294 293 293 295 290 286 291 297 299 299 299 294 288 289 289 294 293 293 293 292
307 307 306 306 305 304 304 303 303 302 303 303 303 303 303 303 300 294 295 301 298 288 287 281 283 287 295 290 289 293 290 293 292 291 291 290 294 294 288 294 296 299 299 300 296 294 292 292 293 293 293 293 290 290
306 306 306 305 305 304 303 303 302 302 302 302 303 303 297 293 289 295 307 304 294 291 286 287 285 282 293 289 289 290 290 287 292 288 290 294 292 288 292 293 295 297 297 295 295 292 291 292 292 292 292 290 289 288
306 305 305 304 304 303 303 302 302 302 302 302 297 293 290 298 308 303 295 290 294 295 293 284 287 283 288 287 286 287 289 286 287 289 296 290 289 293 295 297 297 298 298 295 289 287 289 290 291 291 290 290 289 288
305 305 304 303 303 303 302 302 301 302 301 293 289 288 292 300 293 290 287 287 290 288 288 288 287 285 291 286 285 289 285 286 282 288 287 285 285 291 296 297 299 299 296 293 290 291 293 292 291 291 289 290 289 289
304 304 304 303 303 302 302 302 302 295 291 291 291 293 291 289 287 284 284 287 286 285 288 287 288 289 290 293 288 288 286 288 282 294 286 281 289 295 296 298 300 296 293 291 292 294 293 294 293 292 291 290 289 291
304 303 303 303 303 302 302 302 301 301 298 294 290 287 285 284 277 281 280 282 281 287 290 290 289 291 291 292 288 286 283 282 290 288 285 288 292 294 297 301 297 296 294 292 292 295 295 294 295 293 291 291 291 291
303 303 303 303 303 302 302 302 301 298 291 287 286 274 281 281 283 283 283 286 293 294 291 293 292 290 289 288 288 285 288 288 287 284 285 290 291 293 298 302 297 294 292 292 292 294 294 293 294 294 293 292 291 291
303 302 302 302 302 302 302 302 301 294 290 286 286 280 283 286 286 289 293 291 293 295 293 293 293 290 285 284 285 286 285 286 284 284 289 296 294 295 296 301 297 295 292 292 292 293 295 294 294 293 293 292 293 292
303 302 300 302 303 303 302 301 296 292 290 287 286 283 285 283 284 286 288 287 291 292 293 293 290 285 283 284 284 284 284 281 284 288 294 297 293 295 295 299 299 296 293 294 294 293 294 294 294 294 293 292 293 293
300 294 300 302 303 303 302 295 292 289 287 285 283 285 285 284 283 285 285 286 291 288 285 288 285 285 288 282 282 285 284 287 290 291 294 296 294 295 297 302 300 298 294 295 294 293 293 296 296 295 292 292 293 294
294 295 302 302 301 299 295 293 290 289 284 284 281 283 284 285 284 285 286 287 287 287 289 287 290 284 283 281 279 285 288 289 291 293 295 296 296 297 298 299 302 300 297 296 295 293 293 294 295 294 294 293 293 293
297 299 302 302 297 292 288 288 288 282 284 284 285 286 285 285 286 288 287 288 288 290 289 287 286 284 283 285 285 286 287 287 287 289 293 297 297 297 299 301 301 301 299 296 293 294 293 294 296 296 295 294 292 294
300 300 300 298 296 289 287 286 292 286 282 283 284 283 284 284 287 287 287 287 286 287 285 285 283 286 286 289 288 289 288 289 289 287 288 290 294 293 293 293 296 300 300 297 294 294 294 293 294 296 297 295 294 293
298 297 297 296 293 291 289 285 285 286 285 283 285 284 283 285 284 284 285 288 286 284 283 286 287 290 292 293 291 290 290 290 289 289 289 288 291 291 292 292 296 300 299 298 296 295 293 292 294 295 295 296 297 297
293 299 293 293 288 290 284 287 284 285 283 283 283 284 281 281 282 283 286 285 284 287 287 289 290 292 291 291 292 292 294 292 291 291 292 291 289 290 291 292 298 299 299 296 297 296 294 294 294 295 294 295 295 296
298 295 291 290 286 284 283 287 282 282 279 282 283 281 281 281 284 287 284 285 287 290 291 292 293 293 293 294 293 292 294 293 293 291 292 292 293 293 291 294 296 299 298 296 297 296 295 293 294 294 295 295 294 294
296 289 285 285 284 280 286 281 283 282 282 280 280 279 280 282 285 282 281 284 288 289 289 292 293 292 293 293 292 293 293 294 294 293 293 293 292 292 293 293 294 298 303 301 298 296 295 295 294 294 295 295 295 294
277 276 283 277 284 283 281 281 281 281 280 281 281 281 282 285 281 281 282 286 288 290 291 291 291 291 291 292 293 294 297 295 294 292 294 295 294 292 293 294 297 300 304 303 300 297 296 296 296 296 297 296 295 295
277 281 279 281 281 281 281 281 282 281 283 282 283 285 286 284 282 282 284 289 290 290 291 291 289 288 288 291 291 292 294 296 297 297 299 297 294 293 293 295 301 299 304 305 303 300 298 298 298 298 297 296 290 296
276 280 283 288 286 286 284 285 286 285 284 283 283 284 283 281 282 286 292 294 294 297 298 296 294 290 289 291 292 294 296 297 298 298 300 300 298 298 296 296 300 303 307 308 303 303 302 299 299 299 298 297 299 299
283 285 282 285 285 287 284 285 284 283 285 288 287 283 283 284 283 290 291 293 292 292 293 295 295 295 294 294 294 295 295 296 298 300 300 301 300 301 306 306 305 299 302 308 305 305 304 301 301 301 302 300 299 300
283 287 286 283 285 285 286 285 286 289 291 289 286 284 285 290 292 291 292 293 295 294 293 293 293 295 295 296 295 295 296 295 295 294 295 295 296 301 306 309 307 305 306 301 290 299 304 302 304 302 302 301 301 301
285 288 285 286 285 284 288 291 289 292 292 291 291 290 290 290 293 296 294 294 293 293 294 295 295 295 294 294 293 295 298 298 298 298 295 296 302 306 306 306 307 307 306 303 299 297 289 297 296 301 301 301 300 300
288 287 285 285 285 288 290 292 292 291 290 289 291 286 285 287 290 294 298 299 303 303 301 300 298 297 297 297 297 299 301 305 305 306 305 305 306 307 307 307 307 308 309 305 302 301 299 299 300 300 300 300 301 299
285 285 285 284 285 290 292 291 289 288 289 288 286 286 287 286 289 295 298 299 299 299 296 302 302 304 305 306 304 302 296 305 305 306 307 306 306 309 311 311 310 309 307 308 305 302 302 301 301 302 302 298 296 297
288 287 286 286 286 288 292 291 291 291 293 292 292 293 293 291 288 294 300 300 299 299 299 302 303 305 307 305 303 299 295 298 291 287 288 289 290 299 303 303 304 307 305 305 303 301 298 296 294 293 291 290 288 288
Wind_Speed
11 11 11 11 11 12 10 8 6 3 2 4 7 9 10 11 12 6 5 1 3 3 9 6 3 3 4 0 4 5 7 5 5 5 2 3 2 3 4 11 8 4 2 3 4 5 8 16 16 2 5 12 9 11
12 12 11 10 11 12 10 9 7 5 4 3 5 8 9 10 10 8 2 5 2 4 9 8 16 19 16 20 3 3 5 1 4 3 1 2 4 2 3 6 4 5 2 6 5 8 14 12 11 6 6 7 9 11
13 12 11 10 13 13 11 10 9 6 5 3 5 8 9 9 9 6 3 3 3 3 7 3 6 8 4 7 11 4 4 7 3 5 3 2 5 3 2 6 6 5 4 5 10 6 7 14 8 4 5 9 14 14
13 12 9 11 13 13 12 11 9 7 5 5 7 8 9 10 10 9 2 2 1 3 3 9 4 13 7 14 11 11 15 3 2 3 3 4 3 5 5 7 8 8 6 6 9 13 15 6 5 8 9 8 14 17
14 12 13 15 14 13 12 11 9 7 6 7 7 9 10 11 12 8 5 4 5 3 4 7 19 16 6 4 8 7 10 7 3 2 3 4 3 2 5 4 5 4 6 4 5 18 6 9 5 8 10 13 16 16
12 14 16 15 14 13 11 10 9 8 8 8 8 9 10 9 10 3 4 1 3 2 3 5 6 9 11 6 7 7 6 5 4 5 2 3 3 3 4 4 6 4 4 12 7 9 9 9 8 7 10 15 16 16
14 16 15 15 13 12 11 10 9 9 8 9 9 10 10 8 1 2 5 3 2 4 2 6 6 7 6 5 3 2 2 3 4 4 4 5 4 5 4 7 6 9 11 12 6 5 5 5 11 12 14 16 17 17
15 14 14 13 13 12 11 10 9 8 9 9 11 12 12 10 9 6 7 17 7 1 0 4 6 6 5 4 4 1 2 0 1 4 0 3 1 3 5 3 8 10 12 11 4 3 6 9 11 14 14 13 17 15
14 14 13 13 11 11 9 8 7 9 10 12 12 17 3 2 2 4 1 10 2 4 3 3 3 5 5 3 3 5 2 2 1 3 3 3 2 4 5 11 11 13 10 9 6 6 7 10 13 14 15 15 15 14
14 14 13 13 12 10 8 7 6 9 13 15 2 0 2 3 2 5 4 2 2 3 3 4 3 5 1 2 4 3 2 2 3 4 2 4 3 5 9 9 9 11 7 4 5 8 7 11 12 15 14 13 12 13
14 13 14 13 12 10 9 6 4 9 8 2 2 2 4 9 3 1 3 3 3 4 4 5 6 4 3 3 4 1 3 3 3 1 2 2 3 4 7 8 6 3 1 1 2 5 4 8 12 12 14 14 12 13
15 14 13 12 11 10 8 5 2 2 2 3 2 3 3 2 1 2 4 3 4 5 4 4 6 7 5 3 2 2 2 3 6 0 2 2 4 6 7 9 3 2 1 2 4 4 5 8 11 8 12 12 12 12
15 14 12 11 10 10 8 6 3 3 4 2 1 2 2 3 2 5 4 3 3 3 3 4 5 2 3 2 1 1 2 6 2 1 2 3 4 6 8 7 4 3 1 3 5 4 4 8 10 7 12 10 12 11
13 12 11 11 10 10 8 7 4 1 2 2 3 4 5 5 5 6 4 3 3 0 4 5 2 4 2 2 3 3 6 2 2 2 3 4 5 7 8 4 4 3 1 4 5 6 7 7 9 6 10 10 10 12
12 12 12 11 11 11 9 7 4 1 1 2 3 5 6 6 4 3 1 3 2 3 1 2 4 4 3 2 4 2 4 2 5 3 3 4 7 6 7 4 3 1 0 3 4 5 5 7 9 5 10 9 9 10
12 9 6 10 13 11 9 6 2 0 1 3 5 4 4 1 3 3 2 3 4 2 2 1 3 4 5 4 3 3 4 3 5 4 4 3 5 7 7 5 3 3 2 0 3 4 4 5 10 5 7 8 9 9
9 3 10 15 14 11 12 3 2 2 4 5 5 4 6 5 5 4 2 4 2 3 2 1 3 3 4 3 1 3 5 4 5 5 3 3 4 6 7 5 5 4 4 2 2 3 3 4 6 4 8 8 8 8
1 4 9 16 10 6 1 1 3 4 7 6 4 5 4 4 3 4 4 3 1 1 4 4 1 3 4 3 1 1 1 3 2 3 4 4 3 5 4 6 3 5 4 3 2 2 4 5 6 5 3 6 5 7
3 2 15 16 5 4 4 4 3 4 6 4 5 6 4 4 5 5 4 5 4 4 4 3 4 4 6 3 1 3 3 3 3 4 3 7 5 5 6 6 7 2 5 5 3 1 0 2 2 3 2 4 4 4
9 12 12 7 3 2 3 3 4 4 4 5 2 4 4 5 6 4 5 4 4 3 4 6 5 5 6 8 5 5 4 3 2 2 5 5 4 3 5 4 5 4 3 4 3 2 1 2 2 2 2 2 3 4
5 5 5 4 3 1 3 3 4 5 4 4 3 2 5 2 3 3 4 4 4 5 6 6 8 10 10 9 5 5 6 4 5 5 5 4 5 5 5 5 5 3 3 4 4 3 3 2 1 1 3 2 2 3
2 12 3 3 2 2 4 4 4 4 3 4 4 4 4 4 4 4 4 3 5 6 6 7 9 10 9 10 9 8 10 7 6 4 6 4 3 3 4 4 3 4 2 5 5 4 4 3 2 1 3 3 3 1
7 3 2 3 3 4 6 4 3 4 3 4 2 2 4 3 5 1 4 5 5 5 7 7 10 12 11 11 7 7 8 9 7 6 6 5 5 4 4 5 3 3 3 2 2 4 4 5 4 3 1 2 3 3
2 3 3 4 6 5 4 4 5 4 4 3 3 4 4 4 3 1 5 5 7 4 4 5 4 8 9 10 8 8 7 5 7 5 5 4 4 4 4 5 5 4 6 6 5 4 4 4 4 3 2 1 3 4
4 5 3 6 4 4 4 4 5 4 5 6 4 4 4 2 3 3 8 12 8 2 2 3 4 3 3 3 2 3 4 2 3 4 4 4 3 2 3 4 5 4 5 4 5 5 4 4 5 5 4 4 4 4
5 6 9 7 4 5 5 4 5 7 3 4 6 5 3 3 4 6 4 1 2 3 3 3 3 3 3 3 4 5 5 4 4 2 3 3 5 5 4 2 3 4 3 4 6 6 6 5 6 8 6 6 6 6
6 7 6 5 4 4 2 4 4 3 4 5 4 1 3 5 6 2 1 2 2 2 2 1 0 2 4 5 4 4 4 3 3 4 5 5 4 5 5 4 5 5 3 5 6 7 7 7 6 6 6 4 6 7
7 4 6 6 5 3 4 4 5 6 5 4 1 4 4 4 3 1 2 2 1 3 6 7 7 7 8 7 5 4 4 4 7 6 6 4 4 4 6 5 3 4 3 7 7 7 8 6 6 6 5 5 5 7
5 4 4 8 7 4 6 6 5 5 3 4 3 3 4 3 2 4 9 10 8 7 8 7 6 5 5 6 6 5 4 4 3 3 3 4 3 3 2 3 2 0 3 3 5 10 11 7 6 7 7 5 4 5
5 4 4 5 5 6 5 5 2 1 2 2 1 2 2 3 7 8 9 9 8 8 7 6 4 5 5 5 4 5 6 7 7 6 4 4 5 4 4 4 4 4 2 2 7 5 6 5 4 3 4 3 2 1
2 1 2 2 4 4 4 5 5 4 2 2 2 2 2 3 4 3 5 7 5 3 0 3 5 5 6 5 5 3 2 2 5 7 6 4 3 3 5 2 1 2 2 4 2 6 6 4 3 5 6 5 5 4
3 4 3 3 3 4 6 2 2 2 3 3 2 3 2 2 4 8 9 9 9 10 8 7 6 6 3 5 6 3 6 4 3 4 6 4 2 1 3 3 5 6 3 8 4 4 4 5 5 5 6 8 9 8
3 4 4 3 2 3 3 1 2 1 1 3 5 6 5 3 5 4 6 9 7 8 7 5 3 3 7 5 3 3 3 4 7 6 2 4 6 5 2 3 5 3 7 11 10 10 12 15 11 10 11 11 10 10
Wind_Direction
248 248 245 242 233 204 206 210 222 241 297 346 348 342 352 2 4 16 277 276 77 283 282 249 272 187 314 201 216 289 355 341 13 33 55 303 308 306 334 302 279 290 299 319 312 259 284 358 355 323 256 291 286 283
237 241 246 239 225 189 187 208 210 227 258 327 329 328 341 349 354 15 305 340 335 188 254 274 268 259 246 245 180 247 214 238 239 79 338 286 311 289 224 279 302 300 166 282 241 250 292 317 292 258 289 265 281 287
233 234 240 245 189 182 190 203 202 215 242 283 303 315 325 332 341 345 274 288 344 291 289 295 255 276 201 212 180 169 269 205 250 183 196 212 246 133 238 250 266 266 250 248 312 269 275 310 331 251 267 275 296 300
225 228 233 196 182 180 191 198 199 216 238 268 288 302 314 323 329 320 224 214 101 261 272 281 304 296 264 275 248 204 237 274 183 146 180 207 221 172 234 239 259 271 312 266 260 278 310 279 285 299 296 280 303 310
219 216 188 179 181 184 188 196 200 214 238 260 283 301 316 327 331 310 260 211 197 143 262 288 294 281 272 288 264 225 207 195 173 158 174 224 217 234 253 258 257 189 227 284 291 299 269 279 279 294 298 315 319 314
221 190 176 177 179 183 188 199 202 217 244 265 284 302 313 327 343 354 350 12 154 198 281 315 287 295 305 244 235 261 201 183 166 165 191 235 215 176 259 255 238 237 299 288 277 299 266 267 276 288 317 322 313 312
189 166 168 175 174 179 192 203 212 226 249 270 288 298 303 308 89 180 208 237 238 17 351 307 299 283 306 313 300 359 52 194 151 158 204 205 205 176 249 267 292 311 301 310 308 309 306 298 308 326 328 315 314 307
156 162 167 175 176 184 192 205 223 245 264 283 295 296 296 286 285 273 253 248 214 170 282 272 275 318 341 329 333 278 251 259 248 184 128 213 206 196 257 325 321 311 323 304 340 346 287 291 314 322 315 314 319 317
159 164 171 176 179 187 195 209 233 262 281 292 298 300 339 97 194 237 174 111 127 142 240 213 261 285 346 299 274 325 57 329 294 183 233 147 226 235 321 302 310 299 326 300 306 328 316 321 321 320 320 326 320 323
163 169 172 174 180 184 194 216 255 286 295 299 300 174 249 196 267 69 17 98 200 239 233 246 252 266 55 298 293 350 353 285 314 241 138 32 293 258 275 265 267 289 308 308 328 331 320 331 327 326 333 323 325 321
164 172 177 175 183 186 192 208 265 318 326 76 18 263 261 303 48 213 238 188 159 229 213 235 201 219 266 196 237 157 293 298 308 331 112 223 266 255 269 279 317 77 224 318 294 284 310 318 319 329 329 330 330 329
170 173 171 175 180 186 191 199 266 9 131 199 226 281 311 337 247 244 228 208 201 234 224 198 230 197 257 140 89 337 305 304 261 59 92 287 264 280 315 337 88 131 47 323 307 295 333 328 322 328 333 335 336 335
169 168 168 175 180 186 188 194 210 258 343 38 104 263 75 273 47 218 228 232 250 262 312 330 325 275 339 60 104 118 251 233 314 320 353 266 296 322 338 350 144 136 268 307 328 301 310 328 330 348 343 347 342 350
160 162 172 178 183 186 188 192 206 354 85 170 192 291 190 215 223 197 223 213 260 46 351 320 271 266 225 160 172 202 233 236 249 359 6 307 299 317 334 7 174 181 28 1 332 320 320 333 334 359 358 354 355 3
163 172 178 189 190 187 186 183 180 86 214 251 214 235 227 227 257 208 216 313 289 179 179 322 275 213 266 262 231 264 265 55 42 285 252 267 290 312 324 339 200 164 67 351 321 324 350 343 340 15 12 360 4 8
173 163 197 183 187 182 175 167 137 125 261 239 243 261 278 308 298 8 0 296 314 305 10 12 292 280 230 205 221 233 77 99 252 232 245 263 301 319 316 331 191 190 177 3 315 319 343 355 349 39 18 12 6 12
150 222 193 181 174 176 173 137 129 213 233 233 247 224 249 264 242 241 230 265 261 76 139 103 261 266 310 272 140 106 155 220 241 280 283 279 293 305 315 348 198 183 193 193 300 0 6 10 345 50 27 20 13 4
256 257 168 157 147 120 115 173 215 229 234 238 244 254 249 218 243 263 249 246 103 243 156 192 271 275 292 260 158 215 263 269 256 258 271 264 290 306 310 319 262 201 192 192 217 17 36 14 13 18 40 7 12 11
340 163 150 148 118 133 153 210 197 256 239 228 238 243 224 236 232 231 225 239 198 184 126 140 208 221 221 248 188 242 212 202 260 286 273 283 281 296 314 319 318 39 174 165 188 165 108 2 72 40 43 15 14 10
85 86 97 87 79 150 229 216 189 245 255 235 238 251 220 223 237 226 231 211 182 171 199 190 212 232 260 278 212 224 233 222 177 317 309 311 292 289 310 308 306 300 118 141 150 158 62 347 38 120 105 6 9 28
149 133 107 77 360 326 263 270 245 216 244 236 252 220 248 294 262 244 242 209 174 198 217 216 236 249 246 255 256 239 242 208 211 194 229 271 270 263 299 305 298 306 109 170 178 211 169 198 249 111 134 135 14 17
140 155 117 205 158 230 246 227 221 281 296 251 290 240 238 247 244 234 217 188 217 222 210 231 234 240 249 251 254 236 245 233 230 231 254 245 270 271 275 265 321 304 76 167 174 181 198 195 170 106 100 136 144 75
149 134 128 182 212 235 252 145 224 224 233 262 320 303 273 257 234 175 240 211 235 228 228 235 241 237 239 248 230 242 230 225 233 229 235 226 233 244 265 275 256 275 88 178 177 162 185 196 170 158 158 133 151 175
138 158 190 204 208 250 246 219 217 230 223 230 233 245 256 230 245 221 250 243 255 244 226 263 264 248 250 250 247 250 242 198 223 236 225 207 227 263 246 263 264 208 141 214 168 163 182 181 170 171 184 138 111 136
84 262 199 234 231 226 239 232 210 201 236 208 228 257 269 321 255 252 269 270 260 133 129 72 62 38 27 1 34 359 336 95 118 216 250 194 216 296 299 276 281 226 166 149 159 170 196 164 181 198 195 171 149 130
220 218 189 200 223 208 215 243 224 199 255 230 236 246 234 201 230 241 232 351 110 147 114 89 66 13 348 21 348 333 322 344 8 324 283 219 214 194 217 246 279 282 216 170 154 180 181 172 177 177 180 185 174 157
235 235 207 222 236 223 271 278 266 289 248 238 234 216 236 233 230 216 141 19 88 75 107 91 121 245 261 285 265 261 280 293 271 272 285 298 283 240 175 204 219 231 237 200 167 170 167 171 173 178 192 183 179 181
233 268 232 216 208 216 240 225 223 220 229 237 272 203 220 247 266 274 170 156 264 285 276 264 250 246 249 249 245 247 267 277 279 269 272 276 256 233 215 214 176 205 206 206 174 157 157 171 172 178 185 178 180 173
228 227 234 248 258 239 224 219 220 214 214 189 198 214 257 268 299 312 303 299 290 280 276 268 255 236 236 243 239 234 226 224 237 306 252 234 292 293 263 69 79 174 25 32 128 152 168 175 175 169 170 160 170 142
232 200 218 239 231 236 214 186 226 245 207 218 249 287 282 274 269 269 275 279 267 255 251 246 234 212 219 219 226 228 220 208 206 207 209 203 215 181 124 92 62 37 56 306 118 105 89 106 88 93 120 127 105 106
287 325 263 261 268 266 273 270 277 274 243 247 241 236 241 281 295 265 318 332 342 36 282 168 203 199 204 201 193 172 118 19 136 162 152 140 165 210 117 126 304 6 190 162 222 137 137 133 122 134 132 150 170 169
187 199 210 238 263 279 287 134 220 257 198 186 196 181 214 239 358 1 1 353 4 19 11 26 44 42 19 77 65 100 134 141 134 123 124 103 53 47 115 49 333 329 261 166 151 101 126 154 143 131 113 91 73 72
189 179 217 258 225 250 240 229 263 251 152 67 27 22 36 41 36 336 342 359 359 1 347 351 1 39 40 60 83 78 57 58 63 75 104 97 87 49 297 298 288 269 117 99 103 96 89 88 80 76 77 76 67 56